Location: Narragansett
(41.4496°N, 71.4488°W)
Time: 15:27:11
(UTC+00:00)

N. Korean satellite - Visible Passes

Search period start: 20 September 2021 00:00
Search period end: 30 September 2021 00:00
Orbit: 448 x 498 km, 97.3° (Epoch: 19 September)

Date Brightness Start Highest point End Pass type
(mag) Time Alt. Az. Time Alt. Az. Time Alt. Az.
20 Sep 9.8 09:03:37 10° ENE 09:05:20 13° E 09:07:04 10° ESE visible
22 Sep 8.2 09:39:56 10° NNE 09:43:15 38° E 09:46:37 10° SSE visible
23 Sep 9.7 09:12:56 10° NE 09:15:23 17° E 09:17:50 10° SE visible
25 Sep 7.5 09:49:43 10° NNE 09:53:13 53° E 09:56:44 10° S visible
26 Sep 9.2 09:22:26 10° NE 09:25:21 23° E 09:28:16 10° SSE visible
27 Sep 10.1 08:56:29 10° ENE 08:57:23 11° E 08:58:16 10° ESE visible
28 Sep 6.8 09:59:30 10° NNE 10:03:05 74° ESE 10:06:42 10° S visible
29 Sep 8.6 09:32:01 10° NNE 09:35:15 31° E 09:38:30 10° SSE visible
